Weather History for KINK - August, 2013

Change the Weather History Date:

Saturday, August 17, 2013

  Actual Average Record
Temperature  
Mean Temperature 85 °F -  
Max Temperature 99 °F 94 °F 108 °F (1969)
Min Temperature 72 °F 68 °F 63 °F (1942)
Cooling Degree Days 20    
Growing Degree Days 35 (Base 50)    
Moisture  
Dew Point 54 °F    
Average Humidity 37    
Maximum Humidity 61    
Minimum Humidity 19    
Precipitation  
Precipitation 0.00 in - - ()
Sea Level Pressure  
Sea Level Pressure 29.92 in    
Wind  
Wind Speed 10 mph (SE)    
Max Wind Speed 14 mph    
Max Gust Speed 20 mph    
Visibility 10 miles    
Events Rain , Thunderstorm    
Averages and records for this station are not official NWS values.
T = Trace of Precipitation, MM = Missing Value Source: NWS Daily Summary

Daily Weather History Graph

Daily Weather History Graph

Search for Another Location

Airport or City:

Trip Planner

Search our weather history database for the weather conditions in past years. The results will help you decide how hot, cold, wet, or windy it might be!

Date:

Astronomy

Aug. 17, 2013 Rise Set
Actual Time 7:19 AM CDT 8:33 PM CDT
Civil Twilight 6:53 AM CDT 8:59 PM CDT
Nautical Twilight 6:23 AM CDT 9:29 PM CDT
Astronomical Twilight 5:51 AM CDT 10:01 PM CDT
Moon 5:45 PM CDT (8/17) 3:31 AM CDT (8/17)
Length of Visible Light 14h 05m
Length of Day
13h 14m
Waxing Gibbous, 84% of the Moon is Illuminated
Aug 17
Waxing Gibbous
Aug 20
Full
Aug 28
Last Quarter
Sep 5
New
Sep 12
First Quarter

Hourly Weather History & Observations

Time (CDT) Temp. Heat Index Dew Point Humidity Pressure Visibility Wind Dir Wind Speed Gust Speed Precip Events Conditions
12:53 AM 82.0 °F 81.3 °F 54.0 °F 38% 29.94 in 10.0 mi ESE 9.2 mph - N/A   Clear
1:53 AM 81.0 °F 80.4 °F 53.1 °F 38% 29.94 in 10.0 mi East 10.4 mph - N/A   Partly Cloudy
2:21 AM 80.6 °F 80.3 °F 53.6 °F 39% 30.10 in 10.0 mi East 9.2 mph - N/A Thunderstorm Clear
2:53 AM 79.0 °F - 55.9 °F 45% 29.95 in 10.0 mi ESE 11.5 mph - 0.00 in Rain , Thunderstorm Light Rain
3:27 AM 78.8 °F - 57.2 °F 47% 30.08 in 10.0 mi ESE 11.5 mph - 0.00 in   Clear
3:53 AM 75.9 °F - 57.0 °F 52% 29.94 in 10.0 mi ESE 10.4 mph - 0.00 in   Clear
4:53 AM 75.0 °F - 57.9 °F 55% 29.94 in 10.0 mi ESE 8.1 mph - N/A   Clear
5:53 AM 73.0 °F - 57.9 °F 59% 29.93 in 10.0 mi ESE 8.1 mph - N/A   Clear
6:53 AM 72.0 °F - 57.9 °F 61% 29.95 in 10.0 mi ESE 10.4 mph - N/A   Clear
7:53 AM 72.0 °F - 57.9 °F 61% 29.97 in 10.0 mi ESE 9.2 mph - N/A   Clear
8:53 AM 75.0 °F - 57.9 °F 55% 29.98 in 10.0 mi ESE 9.2 mph - N/A   Clear
9:53 AM 79.0 °F - 57.0 °F 47% 29.99 in 10.0 mi SE 12.7 mph - N/A   Clear
10:53 AM 82.0 °F 81.7 °F 57.0 °F 42% 29.98 in 10.0 mi SSE 12.7 mph - N/A   Clear
11:53 AM 87.1 °F 85.9 °F 57.0 °F 36% 29.97 in 10.0 mi SSE 9.2 mph - N/A   Clear
12:53 PM 91.0 °F 88.9 °F 55.0 °F 29% 29.94 in 10.0 mi South 10.4 mph 19.6 mph N/A   Clear
1:53 PM 93.0 °F 91.1 °F 55.0 °F 28% 29.91 in 10.0 mi ESE 8.1 mph - N/A   Clear
2:53 PM 96.1 °F 93.8 °F 54.0 °F 24% 29.88 in 10.0 mi SSE 10.4 mph - N/A   Clear
3:53 PM 97.0 °F 94.6 °F 53.1 °F 23% 29.85 in 10.0 mi ESE 8.1 mph 16.1 mph N/A   Clear
4:53 PM 97.0 °F - 52.0 °F 22% 29.83 in 10.0 mi SE 9.2 mph - N/A   Clear
5:53 PM 98.1 °F - 48.9 °F 19% 29.81 in 10.0 mi SE 10.4 mph - N/A   Clear
6:53 PM 97.0 °F - 50.0 °F 20% 29.81 in 10.0 mi SSE 12.7 mph - N/A   Clear
7:53 PM 95.0 °F - 48.9 °F 21% 29.81 in 10.0 mi SE 13.8 mph - N/A   Clear
8:53 PM 91.9 °F - 48.9 °F 23% 29.82 in 10.0 mi SE 6.9 mph - N/A   Clear
9:53 PM 89.1 °F - 51.1 °F 27% 29.84 in 10.0 mi SE 8.1 mph - N/A   Clear
10:53 PM 86.0 °F - 51.1 °F 30% 29.87 in 10.0 mi SE 6.9 mph - N/A   Clear
11:53 PM 84.0 °F - 52.0 °F 33% 29.86 in 10.0 mi SE 9.2 mph - N/A   Clear